Погода в Энгель-Юрте

Россия / Чеченская Республика     43°19′29″N   46°21′21″E
темп.,
°C
ветер,
м/с
пор.,
м/с
влажн.,
%
обл.,
%
осадки,
мм/ч
давл.,
гПа
погр.,
м
14 июня, пн
пн1400:00+15юз22910 0.0 101229
03:00+14юз22890 0.0 101221
06:00+17юз23850 0.0 1013115
09:00+22сз33640 0.0 1012793
12:00+26ссз22510 0.0 10111210
15:00+28св22460 0.0 10101502
18:00+27вюв12590 0.0 1010152
21:00+20ююв22750 0.0 101020
15 июня, вт
вт1500:00+19ююв22780 0.0 100919
03:00+18ююв22790 0.0 100815
06:00+20ссз117514 0.0 1008112
09:00+25всв0261100 0.0 1009862
12:00+28всв335011 0.0 10071281
15:00+29всв54470 0.1 10081264
18:00+26в35600 0.0 1009351
21:00+20юв23760 0.0 101037
16 июня, ср
ср1600:00+19ююв11840 0.0 100913
03:00+19ююв11840 0.0 100912
06:00+21всв12780 0.0 1009129
09:00+27всв56570 0.0 1007832
12:00+31всв66450 0.0 10061117
15:00+31всв77410 0.0 1005972
18:00+26всв47560 0.0 1006384
21:00+20ююв01760 0.0 100811
17 июня, чт
чт1700:00+19зюз22810 0.0 100716
03:00+19зюз11820 0.0 100711
06:00+22зюз12730 0.0 1007135
09:00+27зсз33530 0.0 1006738
12:00+31зсз33430 0.0 10051422
15:00+32зсз44410 0.1 10051844
18:00+28зюз68580 0.0 1008760
21:00+25зюз4106891 0.6 1010411
18 июня, пт
пт1800:00+21зюз410782 0.4 1012414
03:00+19зюз4119013 2.2 1014381
06:00+20зюз511810 0.5 1015612
09:00+26з68520 0.5 10141321
12:00+29зсз664616 0.0 10141727
15:00+28сз555056 0.0 10141586
18:00+27зсз345721 0.0 1014655
21:00+21ююз227711 0.0 101620